World > North America > United States > Texas

Trent, Texas Regional Weather

Lat: 32.49N, Lon: 100.12W
Wx Zone: TXZ127Web Search
Trent Weather Warning NWS WEATHER ALERT FOR THE TRENT, TX AREA - Issued: 429 AM CDT Thu Apr 15 2021 Trent Weather Warning  

If you are on your PC, you can easily pass this page to your phone by scanning the QR Code near the bottom with your camera.

Feedback


°F Click to change Trent hourly weather to Imperial units.Click to change Trent hourly weather to Metric units. °C
Trent Weather Map
UTC Time: 4/15/2021, 11:07
Your Time:

Trent, TX Regional Weather

Expires:202104151200;;586299
ASUS44 KFWD 151103
RWRTX 
NORTH TEXAS HOURLY WEATHER ROUNDUP
NATIONAL WEATHER SERVICE FORT WORTH TX
600 AM CDT THU APR 15 2021

NOTE: "FAIR" INDICATES FEW OR NO CLOUDS BELOW 12,000 FEET WITH NO
SIGNIFICANT WEATHER AND/OR OBSTRUCTIONS TO VISIBILITY.


TXZ083>090-098>101-113>116-127>130-139>142-154-155-151200-
WESTERN NORTH TEXAS
  
CITY           SKY/WX    TMP DP  RH WIND       PRES   REMARKS
WICHITA FALLS  CLOUDY    51  48  89 NE14      30.07F                  
WF-KICKAPOO    CLOUDY    51  49  91 NE9G17    30.09F                  
VERNON         CLOUDY    51  49  92 E12G18    30.11R                  
ABILENE        FOG       52  51  97 N6        30.03S VSB 1            
BRECKENRIDGE   CLOUDY    56  56 100 NE3       30.03F FOG              
EASTLAND       CLOUDY    55 N/A N/A NE6       30.03S FOG              
RANGER         FOG       55  55 100 NE7       30.03S VSB 1/4          
MINERAL WELLS  CLOUDY    58  53  84 NE8       30.02S                  
STEPHENVILLE   CLOUDY    58  56  93 E9        30.05S                  
COMANCHE       CLOUDY    57  57 100 E7        30.02S FOG              
COLEMAN        CLOUDY    56  55  96 NE7       30.01S                  
BRADY          CLOUDY    57  55  94 NE9       29.98S                  
$$


SKY/WX - Weather  TMP - Temperature  DP - Dew Point  RH - Relative Humidity
WIND - Wind Direction/Speed PRES - Barometric Pressure VSB - Visibility
WCI - Wind Chill Index E13G22 Wind - East Wind 13 mph/Gusts of 22 mph